[TLELIST] Archives

 

[list_settings.list_name] Current TLEs

January 29th 2009 PST

HST 1 20580U 90037B 09027.90638181 .00000278 00000-0 86376-5 0 3141 2 20580 028.4709 297.4773 0003688 244.9869 115.0336 15.00450241828765 ISS (ZARYA) 1 25544U 98067A 09028.21888861 .00010183 00000-0 85336-4 0 1579 2 25544 051.6432 303.5220 0007839 319.9110 202.3235 15.70631310583931 CXO 1 25867U 99040B 09026.33333333 +.00000015 +00000-0 +10000-3 0 02882 2 25867 064.7971 073.9726 7259473 276.7786 357.1177 00.37805928004476 ____________________________________________________________________ These 2-Line ...Continue Reading

[list_settings.list_name] Current TLEs

January 28th 2009 PST

HST 1 20580U 90037B 09025.97742193 +.00000327 +00000-0 +12416-4 0 03277 2 20580 028.4706 310.0580 0003702 225.6267 134.4007 15.00450164828477 ISS (ZARYA) 1 25544U 98067A 09027.19841559 .00009198 00000-0 77646-4 0 1500 2 25544 051.6433 308.7347 0007770 315.2448 193.1079 15.70605173583779 CXO 1 25867U 99040B 09026.33333333 +.00000015 +00000-0 +10000-3 0 02882 2 25867 064.7971 073.9726 7259473 276.7786 357.1177 00.37805928004476 ____________________________________________________________________ These 2-Line ...Continue Reading

[list_settings.list_name] Current TLEs

January 27th 2009 PST

HST 1 20580U 90037B 09026.17696975 .00000313 00000-0 11353-4 0 3135 2 20580 028.4706 308.7564 0003708 228.0485 131.9789 15.00450102828503 ISS (ZARYA) 1 25544U 98067A 09025.90753036 .00009376 00000-0 79134-4 0 1400 2 25544 051.6429 315.3294 0007688 309.6325 094.9788 15.70580475583578 CXO 1 25867U 99040B 09023.66666667 -.00000091 +00000-0 +10000-3 0 02878 2 25867 064.7867 074.0510 7254817 276.7793 354.1130 00.37806129004467 ____________________________________________________________________ These 2-Line ...Continue Reading

[list_settings.list_name] Current TLEs

January 26th 2009 PST

HST 1 20580U 90037B 09024.91316901 .00000311 00000-0 11156-4 0 3121 2 20580 028.4706 316.9996 0003748 215.1737 144.8602 15.00449698828318 ISS (ZARYA) 1 25544U 98067A 09024.56037037 .00010028 00000-0 84372-4 0 1324 2 25544 051.6435 322.2123 0007747 303.8382 038.7599 15.70556068583351 CXO 1 25867U 99040B 09023.66666667 -.00000091 +00000-0 +10000-3 0 02878 2 25867 064.7867 074.0510 7254817 276.7793 354.1130 00.37806129004467 ____________________________________________________________________ These 2-Line ...Continue Reading

[list_settings.list_name] Current TLEs

January 25th 2009 PST

HST 1 20580U 90037B 09023.25027309 .00000318 00000-0 11718-4 0 3118 2 20580 028.4708 327.8439 0003756 197.2359 162.8102 15.00449296828063 ISS (ZARYA) 1 25544U 98067A 09023.54122685 .00010839 00000-0 90869-4 0 1255 2 25544 051.6440 327.4178 0007733 300.1003 036.4322 15.70537450583194 CXO 1 25867U 99040B 09023.66666667 -.00000091 +00000-0 +10000-3 0 02878 2 25867 064.7867 074.0510 7254817 276.7793 354.1130 00.37806129004467 ____________________________________________________________________ These 2-Line ...Continue Reading

[list_settings.list_name] Current TLEs

January 24th 2009 PST

HST 1 20580U 90037B 09022.18601970 .00000310 00000-0 11118-4 0 3106 2 20580 028.4706 334.7858 0003769 187.4040 172.6493 15.00448878827904 ISS (ZARYA) 1 25544U 98067A 09021.90854292 +.00011432 +00000-0 +95712-4 0 01172 2 25544 051.6436 335.7578 0007718 292.9948 166.3593 15.70502208582942 CXO 1 25867U 99040B 09021.04166667 -.00000144 +00000-0 +10000-3 0 02861 2 25867 064.7779 074.1314 7248742 276.7863 356.7715 00.37806296004451 ____________________________________________________________________ These 2-Line ...Continue Reading

[list_settings.list_name] Current TLEs

January 23rd 2009 PST

HST 1 20580U 90037B 09022.18601970 .00000310 00000-0 11118-4 0 3106 2 20580 028.4706 334.7858 0003769 187.4040 172.6493 15.00448878827904 ISS (ZARYA) 1 25544U 98067A 09021.84369502 .00011494 00000-0 96209-4 0 1169 2 25544 051.6437 336.0886 0007724 292.4839 159.9890 15.70501054582935 CXO 1 25867U 99040B 09021.04166667 -.00000144 +00000-0 +10000-3 0 02861 2 25867 064.7779 074.1314 7248742 276.7863 356.7715 00.37806296004451 ____________________________________________________________________ These 2-Line ...Continue Reading

[list_settings.list_name] Current TLEs

January 22nd 2009 PST

HST 1 20580U 90037B 09021.12176560 .00000324 00000-0 12213-4 0 3091 2 20580 028.4707 341.7262 0003790 176.4795 183.5817 15.00448694827740 ISS (ZARYA) 1 25544U 98067A 09020.88911116 .00011103 00000-0 93195-4 0 1108 2 25544 051.6435 340.9647 0007755 288.2503 163.6017 15.70476493582781 CXO 1 25867U 99040B 09021.04166667 -.00000144 +00000-0 +10000-3 0 02861 2 25867 064.7779 074.1314 7248742 276.7863 356.7715 00.37806296004451 ____________________________________________________________________ These 2-Line ...Continue Reading

[list_settings.list_name] Current TLEs

January 21st 2009 PST

HST 1 20580U 90037B 09019.25932197 .00000319 00000-0 11771-4 0 3089 2 20580 028.4705 353.8808 0003878 159.6639 200.4104 15.00448076827466 ISS (ZARYA) 1 25544U 98067A 09019.66443287 .00011179 00000-0 93909-4 0 1040 2 25544 051.6435 347.2209 0007790 283.3836 079.8947 15.70448043582598 CXO 1 25867U 99040B 09018.41666667 -.00000100 +00000-0 +10000-3 0 02854 2 25867 064.7672 074.1943 7241290 276.8138 359.4076 00.37805015004445 ____________________________________________________________________ These 2-Line ...Continue Reading

[list_settings.list_name] Current TLEs

January 20th 2009 PST

HST 1 20580U 90037B 09017.33036055 +.00000291 +00000-0 +96337-5 0 03186 2 20580 028.4705 006.4606 0003834 140.3851 219.7016 15.00447313827174 ISS (ZARYA) 1 25544U 98067A 09018.53673810 .00011337 00000-0 95262-4 0 973 2 25544 051.6434 352.9819 0007813 279.1391 184.3598 15.70422260582410 CXO 1 25867U 99040B 09018.41666667 -.00000100 +00000-0 +10000-3 0 02854 2 25867 064.7672 074.1943 7241290 276.8138 359.4076 00.37805015004445 ____________________________________________________________________ These 2-Line ...Continue Reading
  • This mailing list is a public mailing list - anyone may join or leave, at any time.
  • This mailing list is announce-only.

International Space Station (ISS) / Hubble Space Telescope (HST) / Chandra X-Ray Observatory Orbital Data via EMAIL

Privacy Policy:

Private list